Change the Weather History Date:

Wednesday, October 10, 2012

  Actual Average Record
Temperature  
Mean Temperature 42 °F -  
Max Temperature 57 °F 60 °F 80 °F (2013)
Min Temperature 28 °F 38 °F 26 °F (1996)
Degree Days  
Heating Degree Days 22    
Moisture  
Dew Point 23 °F    
Average Humidity 49    
Maximum Humidity 80    
Minimum Humidity 20    
Precipitation  
Precipitation 0.00 in - - ()
Sea Level Pressure  
Sea Level Pressure 30.04 in    
Wind  
Wind Speed 9 mph (WSW)    
Max Wind Speed 20 mph    
Max Gust Speed 26 mph    
Visibility 10 miles    
Events      
Averages and records for this station are not official NWS values.
T = Trace of Precipitation, MM = Missing Value Source: NWS Daily Summary

Daily Weather History Graph

Daily Weather History Graph

Search for Another Location

Airport or City:

Trip Planner

Search our weather history database for the weather conditions in past years. The results will help you decide how hot, cold, wet, or windy it might be!

Date:

Astronomy

Oct. 10, 2012 Rise Set
Actual Time 7:28 AM CDT 6:44 PM CDT
Civil Twilight 6:59 AM CDT 7:12 PM CDT
Nautical Twilight 6:26 AM CDT 7:46 PM CDT
Astronomical Twilight 5:53 AM CDT 8:19 PM CDT
Moon 1:56 AM CDT (10/10) 3:55 PM CDT (10/10)
Length of Visible Light 12h 12m
Length of Day
11h 15m
Waning Crescent, 27% of the Moon is Illuminated
Oct 10
Waning Crescent
Oct 15
New
Oct 21
First Quarter
Oct 29
Full
Nov 6
Last Quarter

Hourly Weather History & Observations

Time (CDT) Temp. Windchill Dew Point Humidity Pressure Visibility Wind Dir Wind Speed Gust Speed Precip Events Conditions
12:13 AM 32.0 °F 25.6 °F 23.0 °F 69% 30.06 in 10.0 mi WSW 6.9 mph - N/A   Clear
12:33 AM 32.0 °F 26.4 °F 23.0 °F 69% 30.06 in 10.0 mi WSW 5.8 mph - N/A   Scattered Clouds
12:54 AM 32.0 °F 26.4 °F 23.0 °F 69% 30.06 in 10.0 mi West 5.8 mph - N/A   Scattered Clouds
1:13 AM 32.0 °F 26.4 °F 24.8 °F 75% 30.05 in 10.0 mi West 5.8 mph - N/A   Mostly Cloudy
1:34 AM 32.0 °F 26.4 °F 26.6 °F 80% 30.05 in 10.0 mi West 5.8 mph - N/A   Overcast
1:53 AM 35.6 °F 29.2 °F 26.6 °F 70% 30.06 in 10.0 mi West 8.1 mph - N/A   Overcast
2:14 AM 35.6 °F 29.2 °F 26.6 °F 70% 30.06 in 10.0 mi West 8.1 mph - N/A   Overcast
2:33 AM 35.6 °F 28.6 °F 24.8 °F 65% 30.07 in 10.0 mi West 9.2 mph - N/A   Overcast
2:53 AM 35.6 °F 28.6 °F 24.8 °F 65% 30.06 in 10.0 mi West 9.2 mph - N/A   Overcast
3:14 AM 35.6 °F 29.2 °F 24.8 °F 65% 30.06 in 10.0 mi West 8.1 mph - N/A   Overcast
3:33 AM 35.6 °F 29.9 °F 24.8 °F 65% 30.06 in 10.0 mi West 6.9 mph - N/A   Overcast
3:53 AM 33.8 °F 27.0 °F 24.8 °F 70% 30.06 in 10.0 mi West 8.1 mph - N/A   Mostly Cloudy
4:14 AM 33.8 °F 27.0 °F 24.8 °F 70% 30.06 in 10.0 mi West 8.1 mph - N/A   Mostly Cloudy
4:33 AM 33.8 °F 25.8 °F 24.8 °F 70% 30.07 in 10.0 mi West 10.4 mph - N/A   Overcast
4:53 AM 32.0 °F 24.8 °F 23.0 °F 69% 30.07 in 10.0 mi West 8.1 mph - N/A   Scattered Clouds
5:14 AM 32.0 °F 23.0 °F 23.0 °F 69% 30.08 in 10.0 mi West 11.5 mph - N/A   Clear
5:33 AM 32.0 °F 24.2 °F 23.0 °F 69% 30.09 in 10.0 mi West 9.2 mph - N/A   Clear
5:53 AM 32.0 °F 24.8 °F 23.0 °F 69% 30.09 in 10.0 mi West 8.1 mph - N/A   Clear
6:14 AM 32.0 °F 25.6 °F 23.0 °F 69% 30.09 in 10.0 mi West 6.9 mph - N/A   Clear
6:33 AM 30.2 °F 23.4 °F 23.0 °F 75% 30.10 in 10.0 mi West 6.9 mph - N/A   Clear
6:53 AM 30.2 °F 21.9 °F 23.0 °F 75% 30.10 in 10.0 mi West 9.2 mph - N/A   Clear
7:14 AM 30.2 °F 23.4 °F 23.0 °F 75% 30.11 in 10.0 mi West 6.9 mph - N/A   Clear
7:33 AM 28.4 °F 21.2 °F 23.0 °F 80% 30.11 in 10.0 mi West 6.9 mph - N/A   Clear
7:53 AM 30.2 °F 23.4 °F 23.0 °F 75% 30.12 in 10.0 mi West 6.9 mph - N/A   Clear
8:33 AM 32.0 °F 24.2 °F 26.6 °F 80% 30.13 in 10.0 mi WSW 9.2 mph - N/A   Clear
8:52 AM 33.8 °F 25.8 °F 26.6 °F 75% 30.13 in 10.0 mi West 10.4 mph - N/A   Clear
9:13 AM 35.6 °F 29.9 °F 28.4 °F 75% 30.14 in 10.0 mi West 6.9 mph - N/A   Clear
9:34 AM 37.4 °F 30.8 °F 28.4 °F 70% 30.14 in 10.0 mi WSW 9.2 mph - N/A   Clear
9:53 AM 37.4 °F 30.8 °F 28.4 °F 70% 30.14 in 10.0 mi West 9.2 mph - N/A   Clear
10:13 AM 41.0 °F 35.8 °F 28.4 °F 61% 30.14 in 10.0 mi West 8.1 mph - N/A   Clear
10:34 AM 42.8 °F 36.6 °F 28.4 °F 57% 30.14 in 10.0 mi West 11.5 mph - N/A   Clear
10:53 AM 44.6 °F 39.2 °F 28.4 °F 53% 30.14 in 10.0 mi WSW 10.4 mph - N/A   Clear
11:13 AM 46.4 °F 40.4 °F 26.6 °F 46% 30.14 in 10.0 mi West 13.8 mph 19.6 mph N/A   Clear
11:53 AM 48.2 °F - 24.8 °F 40% 30.14 in 10.0 mi West 10.4 mph 19.6 mph N/A   Scattered Clouds
12:13 PM 48.2 °F - 23.0 °F 37% 30.14 in 10.0 mi West 15.0 mph 21.9 mph N/A   Scattered Clouds
12:34 PM 50.0 °F - 21.2 °F 32% 30.13 in 10.0 mi WSW 12.7 mph - N/A   Clear
12:53 PM 51.8 °F - 17.6 °F 26% 30.12 in 10.0 mi WSW 15.0 mph 23.0 mph N/A   Clear
1:13 PM 51.8 °F - 17.6 °F 26% 30.11 in 10.0 mi West 16.1 mph 19.6 mph N/A   Clear
1:34 PM 51.8 °F - 17.6 °F 26% 30.10 in 10.0 mi West 19.6 mph 25.3 mph N/A   Clear
1:53 PM 53.6 °F - 17.6 °F 24% 30.08 in 10.0 mi WSW 13.8 mph 20.7 mph N/A   Clear
2:13 PM 53.6 °F - 17.6 °F 24% 30.07 in 10.0 mi WSW 15.0 mph - N/A   Clear
2:34 PM 53.6 °F - 17.6 °F 24% 30.07 in 10.0 mi WSW 16.1 mph - N/A   Clear
2:53 PM 53.6 °F - 17.6 °F 24% 30.06 in 10.0 mi WSW 19.6 mph 26.5 mph N/A   Clear
3:14 PM 55.4 °F - 15.8 °F 21% 30.05 in 10.0 mi WSW 13.8 mph 19.6 mph N/A   Clear
3:34 PM 55.4 °F - 15.8 °F 21% 30.04 in 10.0 mi West 16.1 mph 19.6 mph N/A   Clear
3:53 PM 55.4 °F - 15.8 °F 21% 30.03 in 10.0 mi SW 12.7 mph 17.3 mph N/A   Clear
4:13 PM 57.2 °F - 15.8 °F 20% 30.02 in 10.0 mi SW 15.0 mph 19.6 mph N/A   Clear
4:34 PM 57.2 °F - 15.8 °F 20% 30.00 in 10.0 mi WSW 12.7 mph 18.4 mph N/A   Clear
4:53 PM 57.2 °F - 17.6 °F 21% 30.00 in 10.0 mi WSW 9.2 mph - N/A   Clear
5:13 PM 57.2 °F - 17.6 °F 21% 30.00 in 10.0 mi SW 9.2 mph - N/A   Clear
5:34 PM 57.2 °F - 19.4 °F 23% 30.00 in 10.0 mi SW 11.5 mph - N/A   Clear
5:53 PM 57.2 °F - 19.4 °F 23% 29.99 in 10.0 mi SW 10.4 mph - N/A   Clear
6:13 PM 55.4 °F - 21.2 °F 26% 29.99 in 10.0 mi SW 9.2 mph - N/A   Clear
6:33 PM 53.6 °F - 21.2 °F 28% 29.98 in 10.0 mi SSW 9.2 mph - N/A   Clear
6:53 PM 51.8 °F - 21.2 °F 30% 29.97 in 10.0 mi SSW 9.2 mph - N/A   Clear
7:14 PM 51.8 °F - 23.0 °F 33% 29.97 in 10.0 mi South 6.9 mph - N/A   Clear
7:33 PM 51.8 °F - 23.0 °F 33% 29.97 in 10.0 mi South 6.9 mph - N/A   Clear
7:54 PM 50.0 °F - 23.0 °F 35% 29.96 in 10.0 mi South 9.2 mph - N/A   Clear
8:14 PM 50.0 °F - 24.8 °F 37% 29.96 in 10.0 mi South 9.2 mph - N/A   Clear
8:33 PM 48.2 °F - 24.8 °F 40% 29.95 in 10.0 mi South 10.4 mph - N/A   Clear
8:54 PM 46.4 °F 41.9 °F 26.6 °F 46% 29.95 in 10.0 mi South 9.2 mph - N/A   Clear
9:14 PM 46.4 °F 41.1 °F 26.6 °F 46% 29.94 in 10.0 mi South 11.5 mph - N/A   Clear
9:33 PM 48.2 °F - 26.6 °F 43% 29.94 in 10.0 mi South 15.0 mph - N/A   Clear
9:54 PM 48.2 °F - 28.4 °F 46% 29.92 in 10.0 mi South 12.7 mph - N/A   Clear
10:14 PM 48.2 °F - 28.4 °F 46% 29.92 in 10.0 mi South 12.7 mph - N/A   Clear
10:33 PM 50.0 °F - 28.4 °F 43% 29.91 in 10.0 mi SSW 15.0 mph 20.7 mph N/A   Clear
10:53 PM 50.0 °F - 28.4 °F 43% 29.91 in 10.0 mi SSW 13.8 mph - N/A   Clear
11:13 PM 50.0 °F - 30.2 °F 47% 29.91 in 10.0 mi SSW 17.3 mph 21.9 mph N/A   Clear
11:34 PM 51.8 °F - 28.4 °F 41% 29.90 in 10.0 mi SSW 18.4 mph 26.5 mph N/A   Clear
11:53 PM 51.8 °F - 28.4 °F 41% 29.90 in 10.0 mi SW 19.6 mph 23.0 mph N/A   Clear